Tracking 28799 objects as of 18-Apr-2024
HD Live streaming from Space Station
objects crossing your sky now

RADUGA 1-6

Track RADUGA 1-6 now!
RADUGA 1-6 is classified as:


NORAD ID: 26936
Int'l Code: 2001-045A
Perigee: 36,444.5 km
Apogee: 36,590.0 km
Inclination: 13.9 °
Period: 1,473.2 minutes
Semi major axis: 42888 km
RCS: 6.3096 m2 (large)
Launch date: October 6, 2001
Source: Commonwealth of Independent States (former USSR) (CIS)
Launch site: TYURATAM MISSILE AND SPACE COMPLEX (TTMTR)

Military communication.
Your satellite tracking list
Your tracking list is empty




NASA's NSSDC Master Catalog

Two Line Element Set (TLE):
1 26936U 01045A   24108.84741397 -.00000151  00000-0  00000-0 0  9992
2 26936  13.8725  20.2576 0016958 182.8242  75.5720  0.97745254 80874
Source of the keplerian elements: AFSPC